| time (UTC) | temp C | wind direction | speed KPH | gust KPH | rain 1hr cm | rain 24hr cm | rain mn cm | humidity % | barometer mb |
| 20260506144220 | 10 | 300 | 4.8 | 9.7 | 0.00 | 0.10 | 0.00 | 63 | 1012.1 |
| 20260506143210 | 10 | 293 | 1.6 | 11.3 | 0.00 | 0.10 | 0.00 | 64 | 1012.2 |
| 20260506142222 | 10 | 300 | 3.2 | 9.7 | 0.00 | 0.10 | 0.00 | 64 | 1012.1 |
| 20260506141217 | 10 | 333 | 0.0 | 11.3 | 0.00 | 0.10 | 0.00 | 66 | 1011.9 |
| 20260506140222 | 10 | 293 | 3.2 | 11.3 | 0.00 | 0.10 | 0.00 | 66 | 1011.8 |
| 20260506135213 | 10 | 294 | 1.6 | 6.4 | 0.00 | 0.10 | 0.00 | 65 | 1011.8 |
| 20260506134224 | 10 | 333 | 0.0 | 8.0 | 0.00 | 0.10 | 0.00 | 67 | 1011.9 |
| 20260506133220 | 10 | 354 | 1.6 | 6.4 | 0.00 | 0.10 | 0.00 | 70 | 1011.7 |
| 20260506132211 | 9 | 304 | 1.6 | 8.0 | 0.00 | 0.10 | 0.00 | 70 | 1011.6 |
| 20260506131222 | 8 | 319 | 0.0 | 9.7 | 0.00 | 0.10 | 0.00 | 72 | 1011.4 |
| 20260506130246 | 8 | 269 | 1.6 | 8.0 | 0.00 | 0.10 | 0.00 | 72 | 1011.3 |
| 20260506125221 | 8 | 339 | 0.0 | 8.0 | 0.00 | 0.10 | 0.00 | 75 | 1011.2 |
| 20260506124210 | 8 | 352 | 0.0 | 8.0 | 0.00 | 0.10 | 0.00 | 76 | 1010.9 |
| 20260506123242 | 7 | 283 | 4.8 | 8.0 | 0.00 | 0.10 | 0.00 | 75 | 1010.9 |
| 20260506122211 | 7 | 284 | 1.6 | 3.2 | 0.00 | 0.10 | 0.00 | 77 | 1010.8 |
| 20260506121225 | 7 | 300 | 1.6 | 4.8 | 0.00 | 0.10 | 0.00 | 75 | 1010.7 |
| 20260506120227 | 7 | 350 | 1.6 | 6.4 | 0.00 | 0.10 | 0.00 | 76 | 1010.8 |
| 20260506115218 | 7 | 307 | 1.6 | 4.8 | 0.00 | 0.10 | 0.00 | 76 | 1010.9 |
| 20260506114228 | 7 | 330 | 0.0 | 1.6 | 0.00 | 0.10 | 0.00 | 75 | 1010.6 |
| 20260506113223 | 7 | 309 | 0.0 | 3.2 | 0.00 | 0.10 | 0.00 | 75 | 1010.4 |
| 20260506112215 | -17 | 0.0 | 0.0 | 0.00 | 0.10 | 0.00 | 1010.4 | ||
| 20260506111225 | -17 | 0.0 | 0.0 | 0.00 | 0.10 | 0.00 | 1010.2 | ||
| 20260506110319 | -17 | 0.0 | 0.0 | 0.00 | 0.10 | 0.00 | 1010.0 | ||
| 20260506105221 | -17 | 0.0 | 0.0 | 0.00 | 0.10 | 0.00 | 1009.9 | ||
| 20260506104252 | -17 | 0.0 | 0.0 | 0.00 | 0.10 | 0.00 | 1009.7 | ||
| 20260506103210 | -17 | 0.0 | 0.0 | 0.00 | 0.10 | 0.00 | 1009.6 | ||
| 20260506102222 | -17 | 0.0 | 0.0 | 0.00 | 0.10 | 0.00 | 1009.6 | ||
| 20260506101315 | -17 | 0.0 | 0.0 | 0.00 | 0.10 | 0.00 | 1009.5 | ||
| 20260506100232 | -17 | 0.0 | 0.0 | 0.00 | 0.10 | 0.00 | 1009.4 | ||
| 20260506095222 | -17 | 0.0 | 0.0 | 0.00 | 0.10 | 0.00 | 1009.2 | ||
| 20260506094220 | -17 | 0.0 | 0.0 | 0.00 | 0.10 | 0.00 | 1009.1 | ||
| 20260506093235 | -17 | 0.0 | 0.0 | 0.00 | 0.10 | 0.00 | 1009.0 | ||
| 20260506092246 | -17 | 0.0 | 0.0 | 0.00 | 0.10 | 0.00 | 1009.1 | ||
| 20260506091227 | -17 | 0.0 | 0.0 | 0.00 | 0.10 | 0.00 | 1009.2 | ||
| 20260506090251 | -17 | 0.0 | 0.0 | 0.00 | 0.10 | 0.00 | 1008.9 | ||
| 20260506085228 | 7 | 304 | 1.6 | 6.4 | 0.00 | 0.10 | 0.00 | 61 | 1008.7 |
| 20260506084219 | 8 | 341 | 0.0 | 4.8 | 0.00 | 0.10 | 0.00 | 62 | 1008.9 |
| 20260506083248 | 8 | 294 | 0.0 | 4.8 | 0.00 | 0.10 | 0.00 | 61 | 1008.9 |
| 20260506082222 | 8 | 291 | 1.6 | 4.8 | 0.00 | 0.10 | 0.00 | 60 | 1008.8 |
| 20260506081214 | 8 | 38 | 1.6 | 6.4 | 0.00 | 0.10 | 0.00 | 60 | 1008.8 |
| 20260506080217 | 8 | 327 | 0.0 | 3.2 | 0.00 | 0.10 | 0.00 | 60 | 1008.8 |
| 20260506073235 | 8 | 336 | 3.2 | 8.0 | 0.00 | 0.10 | 0.00 | 59 | 1008.9 |
| 20260506072225 | 8 | 306 | 1.6 | 4.8 | 0.00 | 0.10 | 0.00 | 59 | 1008.8 |
| 20260506071221 | 8 | 293 | 0.0 | 4.8 | 0.00 | 0.10 | 0.00 | 59 | 1008.7 |
| 20260506070223 | 8 | 360 | 0.0 | 6.4 | 0.00 | 0.10 | 0.00 | 58 | 1008.8 |
| 20260506062212 | 9 | 295 | 0.0 | 1.6 | 0.00 | 0.10 | 0.00 | 59 | 1009.0 |
| 20260506061244 | 9 | 285 | 1.6 | 4.8 | 0.00 | 0.10 | 0.00 | 59 | 1009.1 |
| 20260506060227 | 9 | 295 | 1.6 | 6.4 | 0.00 | 0.10 | 0.00 | 60 | 1009.3 |
| 20260506051221 | 9 | 271 | 0.0 | 3.2 | 0.00 | 0.10 | 0.00 | 59 | 1009.0 |
| 20260506050210 | 9 | 312 | 0.0 | 3.2 | 0.00 | 0.23 | 0.00 | 59 | 1009.1 |
| 20260506044250 | 9 | 281 | 0.0 | 1.6 | 0.00 | 0.23 | 0.00 | 59 | 1009.0 |
| 20260506043219 | 9 | 285 | 0.0 | 3.2 | 0.00 | 0.23 | 0.00 | 59 | 1009.0 |
| 20260506042215 | 9 | 283 | 0.0 | 1.6 | 0.00 | 0.23 | 0.00 | 58 | 1008.8 |
| 20260506041226 | 9 | 282 | 1.6 | 4.8 | 0.00 | 0.23 | 0.00 | 58 | 1008.9 |
| 20260506040230 | 9 | 273 | 0.0 | 1.6 | 0.00 | 0.23 | 0.23 | 59 | 1008.7 |
| 20260506035220 | 9 | 271 | 0.0 | 0.0 | 0.00 | 0.23 | 0.23 | 59 | 1008.7 |
| 20260506034214 | 9 | 271 | 0.0 | 0.0 | 0.00 | 0.23 | 0.23 | 59 | 1008.9 |
| 20260506033226 | 9 | 271 | 0.0 | 0.0 | 0.00 | 0.23 | 0.23 | 59 | 1008.9 |
| 20260506032216 | 9 | 271 | 0.0 | 1.6 | 0.00 | 0.23 | 0.23 | 59 | 1009.0 |
| 20260506031210 | 9 | 267 | 0.0 | 1.6 | 0.00 | 0.23 | 0.23 | 60 | 1009.2 |
| 20260506030235 | 10 | 267 | 0.0 | 0.0 | 0.00 | 0.23 | 0.23 | 58 | 1009.0 |
| 20260506025246 | 10 | 267 | 0.0 | 1.6 | 0.00 | 0.23 | 0.23 | 56 | 1008.9 |
| 20260506024215 | 10 | 269 | 0.0 | 1.6 | 0.00 | 0.23 | 0.23 | 56 | 1009.1 |
| 20260506023227 | 10 | 285 | 0.0 | 1.6 | 0.00 | 0.23 | 0.23 | 54 | 1009.1 |
| 20260506022222 | 10 | 277 | 1.6 | 4.8 | 0.00 | 0.23 | 0.23 | 53 | 1009.0 |
| 20260506021211 | 10 | 278 | 0.0 | 1.6 | 0.00 | 0.23 | 0.23 | 53 | 1009.0 |
| 20260506020216 | 10 | 287 | 1.6 | 3.2 | 0.00 | 0.25 | 0.23 | 52 | 1008.9 |
| 20260506015211 | 10 | 269 | 0.0 | 3.2 | 0.00 | 0.25 | 0.23 | 52 | 1008.7 |
| 20260506014222 | 10 | 283 | 0.0 | 1.6 | 0.00 | 0.25 | 0.23 | 50 | 1008.6 |
| 20260506013213 | 10 | 274 | 0.0 | 3.2 | 0.00 | 0.25 | 0.23 | 49 | 1008.6 |
| 20260506012224 | 11 | 271 | 0.0 | 4.8 | 0.00 | 0.25 | 0.23 | 48 | 1008.4 |
| 20260506011219 | 11 | 326 | 0.0 | 6.4 | 0.00 | 0.25 | 0.23 | 48 | 1008.3 |
| 20260506010225 | 11 | 288 | 3.2 | 11.3 | 0.00 | 0.25 | 0.23 | 47 | 1008.4 |
| 20260506005215 | 11 | 290 | 3.2 | 6.4 | 0.00 | 0.25 | 0.23 | 48 | 1008.5 |
| 20260506004226 | 11 | 291 | 1.6 | 8.0 | 0.00 | 0.25 | 0.23 | 47 | 1008.5 |
| 20260506003221 | 11 | 276 | 3.2 | 6.4 | 0.00 | 0.25 | 0.23 | 47 | 1008.5 |
| 20260506002212 | 11 | 298 | 1.6 | 9.7 | 0.00 | 0.25 | 0.23 | 48 | 1008.3 |
| 20260506001222 | 11 | 6 | 3.2 | 8.0 | 0.00 | 0.25 | 0.23 | 53 | 1008.3 |
| 20260506000211 | 11 | 285 | 0.0 | 8.0 | 0.00 | 0.28 | 0.23 | 55 | 1008.1 |
| 20260505235222 | 11 | 298 | 1.6 | 3.2 | 0.00 | 0.28 | 0.23 | 55 | 1008.0 |
| 20260505234232 | 11 | 281 | 1.6 | 6.4 | 0.00 | 0.28 | 0.23 | 53 | 1007.8 |
| 20260505233242 | 11 | 255 | 3.2 | 8.0 | 0.00 | 0.28 | 0.23 | 52 | 1007.8 |
| 20260505232211 | 11 | 305 | 3.2 | 9.7 | 0.00 | 0.28 | 0.23 | 52 | 1007.7 |
| 20260505231226 | 12 | 232 | 3.2 | 9.7 | 0.00 | 0.28 | 0.23 | 53 | 1007.7 |
| 20260505230211 | 12 | 280 | 1.6 | 8.0 | 0.00 | 0.28 | 0.23 | 53 | 1007.8 |
| 20260505225222 | 12 | 293 | 3.2 | 8.0 | 0.00 | 0.28 | 0.23 | 52 | 1007.8 |
| 20260505224215 | 12 | 271 | 3.2 | 11.3 | 0.00 | 0.28 | 0.23 | 54 | 1007.9 |
| 20260505223227 | 12 | 282 | 3.2 | 11.3 | 0.00 | 0.28 | 0.23 | 56 | 1007.9 |
| 20260505222218 | 12 | 300 | 1.6 | 8.0 | 0.00 | 0.28 | 0.23 | 60 | 1007.9 |
| 20260505221248 | 12 | 304 | 1.6 | 8.0 | 0.00 | 0.28 | 0.23 | 62 | 1007.8 |
| 20260505220216 | 12 | 282 | 3.2 | 9.7 | 0.00 | 0.28 | 0.23 | 63 | 1007.8 |
| 20260505215228 | 12 | 262 | 3.2 | 8.0 | 0.00 | 0.28 | 0.23 | 65 | 1007.9 |
| 20260505214218 | 12 | 294 | 1.6 | 9.7 | 0.00 | 0.28 | 0.23 | 68 | 1007.9 |
| 20260505213230 | 12 | 267 | 1.6 | 6.4 | 0.00 | 0.28 | 0.23 | 70 | 1007.9 |
| 20260505212224 | 12 | 276 | 4.8 | 9.7 | 0.00 | 0.28 | 0.23 | 68 | 1007.8 |
| 20260505211214 | 12 | 278 | 6.4 | 12.9 | 0.00 | 0.28 | 0.23 | 69 | 1007.8 |
| 20260505210219 | 12 | 265 | 0.0 | 8.0 | 0.00 | 0.28 | 0.23 | 73 | 1007.9 |
| 20260505205210 | 12 | 274 | 1.6 | 8.0 | 0.00 | 0.28 | 0.23 | 73 | 1007.9 |
| 20260505204225 | 12 | 267 | 1.6 | 8.0 | 0.00 | 0.28 | 0.23 | 73 | 1008.0 |
| 20260505203216 | 12 | 279 | 1.6 | 9.7 | 0.00 | 0.28 | 0.23 | 73 | 1008.1 |
| 20260505202227 | 12 | 289 | 1.6 | 4.8 | 0.00 | 0.28 | 0.23 | 75 | 1008.0 |
| 20260505201239 | 12 | 264 | 0.0 | 6.4 | 0.00 | 0.28 | 0.23 | 76 | 1008.0 |
| 20260505200247 | 11 | 250 | 0.0 | 3.2 | 0.00 | 0.28 | 0.23 | 77 | 1008.0 |
| 20260505195217 | 11 | 253 | 1.6 | 11.3 | 0.00 | 0.28 | 0.23 | 76 | 1008.0 |
| 20260505194248 | 11 | 309 | 1.6 | 4.8 | 0.00 | 0.28 | 0.23 | 77 | 1008.1 |
| 20260505193217 | 11 | 262 | 0.0 | 4.8 | 0.00 | 0.28 | 0.23 | 77 | 1008.2 |
| 20260505192213 | 11 | 266 | 0.0 | 9.7 | 0.00 | 0.28 | 0.23 | 77 | 1008.2 |
| 20260505191243 | 11 | 257 | 0.0 | 9.7 | 0.00 | 0.28 | 0.23 | 78 | 1008.2 |
| 20260505190227 | 11 | 246 | 0.0 | 3.2 | 0.00 | 0.28 | 0.23 | 79 | 1008.3 |
| 20260505185217 | 11 | 259 | 0.0 | 4.8 | 0.00 | 0.28 | 0.23 | 79 | 1008.4 |
| 20260505184211 | 11 | 242 | 1.6 | 6.4 | 0.00 | 0.28 | 0.23 | 79 | 1008.3 |
| 20260505183243 | 11 | 276 | 0.0 | 3.2 | 0.00 | 0.28 | 0.23 | 80 | 1008.2 |
| 20260505182212 | 10 | 287 | 0.0 | 8.0 | 0.03 | 0.28 | 0.23 | 81 | 1008.0 |
| 20260505181223 | 10 | 242 | 0.0 | 6.4 | 0.03 | 0.28 | 0.23 | 82 | 1008.0 |
| 20260505180210 | 10 | 260 | 0.0 | 8.0 | 0.03 | 0.28 | 0.23 | 83 | 1007.7 |
| 20260505175221 | 10 | 252 | 0.0 | 1.6 | 0.05 | 0.28 | 0.23 | 86 | 1007.8 |
| 20260505174211 | 10 | 262 | 0.0 | 3.2 | 0.05 | 0.28 | 0.23 | 86 | 1007.7 |
| 20260505173221 | 10 | 291 | 0.0 | 6.4 | 0.05 | 0.28 | 0.23 | 87 | 1007.5 |
| 20260505172216 | 10 | 252 | 1.6 | 4.8 | 0.03 | 0.25 | 0.20 | 86 | 1007.4 |
| 20260505171227 | 10 | 272 | 1.6 | 3.2 | 0.05 | 0.25 | 0.20 | 85 | 1007.4 |
| 20260505170232 | 10 | 264 | 0.0 | 4.8 | 0.08 | 0.25 | 0.20 | 86 | 1007.7 |
| 20260505165222 | 10 | 259 | 0.0 | 3.2 | 0.05 | 0.23 | 0.18 | 86 | 1007.6 |
| 20260505164218 | 10 | 265 | 0.0 | 6.4 | 0.05 | 0.23 | 0.18 | 85 | 1007.9 |
| 20260505163228 | 10 | 308 | 0.0 | 8.0 | 0.05 | 0.23 | 0.18 | 84 | 1008.0 |
| 20260505162219 | 11 | 300 | 3.2 | 12.9 | 0.05 | 0.23 | 0.18 | 80 | 1008.0 |
| 20260505161249 | 11 | 302 | 4.8 | 12.9 | 0.03 | 0.20 | 0.15 | 75 | 1008.0 |
| 20260505160215 | 12 | 235 | 6.4 | 19.3 | 0.00 | 0.18 | 0.13 | 71 | 1007.9 |
| 20260505153214 | 13 | 287 | 1.6 | 8.0 | 0.00 | 0.18 | 0.13 | 61 | 1007.3 |
| 20260505152225 | 13 | 262 | 0.0 | 8.0 | 0.00 | 0.18 | 0.13 | 61 | 1006.7 |
| 20260505151218 | 13 | 254 | 3.2 | 8.0 | 0.00 | 0.18 | 0.13 | 60 | 1006.7 |
| 20260505150241 | 13 | 274 | 4.8 | 14.5 | 0.00 | 0.18 | 0.13 | 57 | 1006.5 |